AirNav   Air Wisconsin Up To $57,000 Bonus
 
 736 users online  

84MO Holiday Inn Westport Heliport
St Louis, Missouri, USA

GOING TO ST LOUIS?


FAA INFORMATION EFFECTIVE 26 MARCH 2020

Location

FAA Identifier: 84MO
Lat/Long: 38-41-38.1870N 090-26-55.4270W
38-41.636450N 090-26.923783W
38.6939408,-90.4487297
(estimated)
Elevation: 600 ft. / 183 m (estimated)
Variation: 02E (1985)
From city: 15 miles NW of ST LOUIS, MO
Time zone: UTC -5 (UTC -6 during Standard Time)
Zip code: 63146

Heliport Operations

Heliport use: Private use. Permission required prior to landing
Activation date: 04/1983
Control tower: no
ARTCC: KANSAS CITY CENTER
FSS: SAINT LOUIS FLIGHT SERVICE STATION
Attendance: DAWN-2300
Wind indicator: no
Segmented circle: yes

Heliport Communications

WX ASOS at STL (5 nm NE): 125.025 (314-890-4790)
WX ASOS at SUS (10 nm W): 134.8 (314-890-7255)
WX ASOS at SET (14 nm N): 118.075 (636-250-4590)
WX ASOS at CPS (16 nm SE): PHONE 618-332-0001

Nearby radio navigation aids

VOR radial/distance  VOR name  Freq  Var
STLr170/10.1ST LOUIS VORTAC117.4001E
FTZr085/24.5FORISTELL VORTAC110.8005E
TOYr260/25.0TROY VORTAC116.0004E

 
NDB name  Hdg/Dist  Freq  Var  ID
EAVES079/4.722701WFZ ..-. --..
CIVIC MEMORIAL238/21.926301WCVM -.-. ...- --

Heliport Services

Runway Information

Helipad H1

Dimensions: 86 x 86 ft. / 26 x 26 m
Surface: asphalt/concrete
Latitude: 38-41.636500N
Longitude: 090-26.923833W
Elevation: 600.0 ft.
Traffic pattern: leftleft

Heliport Ownership and Management from official FAA records

Ownership: Privately-owned
Owner: DOUBLETREE ST. LOUIS AT WESTPORT
1973 CRAIGSHIRE DR.
ST. LOUIS, MO 63146
Phone 573-434-0100
ANITA M. SUMNER, ST. LOUIS HOTEL CORP.
Manager: DAN GOUGH
1973 CRAIGSHIRE DRIVE
ST. LOUIS, MO 63146
Phone 314-434-0100

Additional Remarks

FOR CD CTC ST LOUIS APCH AT 314-890-1018.

Instrument Procedures

There are no published instrument procedures at 84MO.

Some nearby airports with instrument procedures:

1H0 - Creve Coeur Airport (3 nm NW)
KSTL - St Louis Lambert International Airport (5 nm NE)
KSUS - Spirit of St Louis Airport (10 nm W)
KSET - St Charles County Smartt Airport (14 nm N)
KCPS - St Louis Downtown Airport (16 nm SE)
 
Loc | Ops | Rwys | IFR | FBO | Links
Com | Nav | Svcs | Stats | Notes

Kansas City Aviation Department
 
Area around 84MO (Holiday Inn Westport Heliport)
 
Road maps at: MapQuest Bing Google
 
Aerial photo
No photo
 
Sectional chart

 
Airport distance calculator
Flying to Holiday Inn Westport Heliport? Find the distance to fly.

From to 84MO

Sunrise and sunset
Times for 02-Apr-2020
 Local
(UTC-5)
 Zulu
(UTC)
Morning civil twilight06:1811:18
Sunrise06:4411:44
Sunset19:2600:26
Evening civil twilight19:5300:53

Current date and time
Zulu (UTC)  03-Apr-2020 01:50:48
Local (UTC-5)  02-Apr-2020 20:50:48
 
METAR
KSTL 
5nm NE 
030051Z 13015KT 10SM BKN130 OVC250 19/05 A2999 RMK AO2 SLP154 T01890050
KSUS 
10nm W 
030054Z 14007G19KT 10SM CLR 19/06 A2998 RMK AO2 SLP149 T01890056
KSET 
14nm N 
030054Z AUTO 12012KT 10SM CLR 18/07 A2997 RMK AO2 SLP148 T01830067
KCPS 
16nm SE 
030053Z 15008KT 10SM CLR 18/07 A3000 RMK AO2 SLP156 T01780067
TAF
KSTL 
5nm NE 
022052Z 0221/0324 14012G20KT P6SM SCT120 BKN250 FM030000 14012KT P6SM BKN250 FM030500 14008KT P6SM VCSH OVC080 FM032100 16007KT P6SM VCSH OVC030
KSUS 
10nm W 
021859Z 0219/0318 12010KT P6SM SCT250 FM022000 15012KT P6SM BKN250 FM030500 14007KT P6SM VCSH OVC090 FM031400 16008KT P6SM VCSH OVC040
KCPS 
16nm SE 
021859Z 0219/0318 14012G20KT P6SM SCT250 FM030600 14007KT P6SM VCSH OVC090 FM031400 16008KT P6SM VCSH OVC060
NOTAMs
Click for the latest NOTAMs
NOTAMs are issued by the DoD/FAA and will open in a separate window not controlled by AirNav.

 

 
 

Would you like to see your business listed on this page?

 If your business provides an interesting product or service to pilots, flight crews, aircraft, or users of the Holiday Inn Westport Heliport, you should consider listing it here.  To start the listing process, click on the button below
 
Add a business
 

Other Pages about Holiday Inn Westport Heliport

Update a link
 
Copyright © AirNav, LLC. All rights reserved. Privacy Policy  Contact